Regional Weather Roundup
Issued by NWS

Home | Current Version | Previous Version | Text Only | Print | Product List | Glossary On
Versions: 1 2 3 4 5 6 7 8 9 10 11 12 13 14 15 16 17 18 19 20 21 22 23 24 25 26 27 28 29 30 31 32 33 34 35 36 37 38 39 40 41 42 43 44 45 46 47 48 49 50
000
ASHW40 PHFO 030532
RWRHI

WEATHER ROUNDUP FOR HAWAII
NATIONAL WEATHER SERVICE HONOLULU HI
700 PM HST MON MAY 02 2016

THIS IS AN AUTOMATED REPORT THAT HAS NOT BEEN QUALITY CONTROLLED.

NOTE..."FAIR" INDICATES FEW OR NO CLOUDS BELOW 12,000 FEET WITH NO
SIGNIFICANT WEATHER AND/OR OBSTRUCTIONS TO VISIBILITY.

* - THESE SITES REPORT LIMITED FIELDS

HIZ001>004-030600-
KAUAI-NIIHAU-

CITY           SKY/WX    TMP DP  RH WIND       PRES   REMARKS
LIHUE APT      MOCLDY    79  68  69 NE16      30.13R
PORT ALLEN*      N/A     77 N/A N/A E20G26      N/A
POIPU*           N/A     77 N/A N/A NE9G17      N/A
PRINCEVILLE*     N/A     75 N/A N/A NE9G15      N/A
KOKOLE POINT*  NOT AVBL
MOLOAA DAIRY*    N/A     75  68  78 NE3G9       N/A
WAIMEA HTS*    NOT AVBL
PUU OPAE*      NOT AVBL
PUU LUA*       NOT AVBL
MAKAHA RIDGE*    N/A     72  61  68 SE1G8       N/A
$$

HIZ005>011-030600-
OAHU-

CITY           SKY/WX    TMP DP  RH WIND       PRES   REMARKS
HONOLULU       PTCLDY    78  63  59 NE12G21   30.09R
KALAELOA       CLEAR     78  61  55 VRB5      30.10R
KANEOHE MCB    PTCLDY    77  65  66 NE8       30.09R
WHEELER FIELD  FAIR      74  62  64 NE6       30.11R
BELLOWS*         N/A    N/A N/A N/A NE14        N/A
KAHUKU*          N/A    N/A N/A N/A VRB9G17     N/A
WHEELER*       NOT AVBL
WAIANAE HARBOR NOT AVBL
DILLINGHAM*      N/A    N/A N/A N/A MISG        N/A
KAHUKU TRN*      N/A     75  64  69 CALM        N/A
KAWAILOA*        N/A     72  63  73 NE3G14      N/A
KII*             N/A     77  68  73 E16         N/A
MAKUA RANGE*     N/A     77  57  50 E7G18       N/A
OAHU FOREST NW NOT AVBL
SCHOFIELD BRK*   N/A     81  68  65 MISG        N/A
SCHOFIELD S*   NOT AVBL
WAIANAE VLY*   NOT AVBL
KUAOKALA*      NOT AVBL
HONOULIUULI*   NOT AVBL
MOKUOLOE IS*   NOT AVBL
PALEHUA*       NOT AVBL
WAIAWA PHB*    NOT AVBL
$$

HIZ012>013-030600-
MOLOKAI-

CITY           SKY/WX    TMP DP  RH WIND       PRES   REMARKS
MOLOKAI AIRPT  MOCLDY    74  65  73 NE14G22   30.11R
KALAUPAPA      NOT AVBL
MAKAPULAPAI*     N/A     75  66  73 E18G25      N/A
MOLOKAI 1*     NOT AVBL
PUU ALII*        N/A     58  57  98 N2G8        N/A
$$

HIZ016-030600-
KAHOOLAWE-

CITY           SKY/WX    TMP DP  RH WIND       PRES   REMARKS
KAHOOLAWE*       N/A     70 N/A N/A NE1         N/A
HAKIOAWA*        N/A     72  67  83 MISG      30.52R
HONOKANAIA*      N/A     78  65  63 NE10G25     N/A
KANELOA*         N/A     73  66  78 E18G28    30.13R
KEALIALALO*    NOT AVBL
LUA MAKIKA*    NOT AVBL
$$

HIZ014>015-030600-
LANAI-

CITY           SKY/WX    TMP DP  RH WIND       PRES   REMARKS
LANAI CITY     FAIR      70  63  78 NE20G25   30.12R
LANAI 1*       NOT AVBL
$$

HIZ017>028-030600-
MAUI-

CITY           SKY/WX    TMP DP  RH WIND       PRES   REMARKS
KAHULUI        PTCLDY    76  66  71 NE13      30.10R
KAPALUA-W MAUI NOT AVBL
HANA AIRPORT   NOT AVBL
HANA*            N/A     75 N/A N/A NE7         N/A
HALEAKALA SUMM   N/A     46  12  25 NE14        N/A
MAALAEA BAY*     N/A     75 N/A N/A N17G29      N/A
HALEAKALA*     NOT AVBL
KAUPO GAP*     NOT AVBL
KULA 1*          N/A     54  53  96 CALM        N/A
$$

HIZ023>026-030600-
BIG ISLAND OF HAWAII COAST AND LOWER SLOPES-

CITY           SKY/WX    TMP DP  RH WIND       PRES   REMARKS
KAILUA KONA    PTCLDY    81  67  62 VRB7      30.04R
HILO           MOCLDY    76  66  71 NE7       30.10R
HONOKAA*         N/A     70 N/A N/A VRB1        N/A
KAWAIHAE MWT*    N/A     81 N/A N/A SW6         N/A
KAWAIHAE*        N/A     81 N/A N/A SW5       30.04R
SOUTH POINT*     N/A     72 N/A N/A N14G21      N/A
UPOLU AIRPORT*   N/A    N/A N/A N/A NE17G25     N/A
KAMUELA*       MOCLDY    63  61  94 N16       30.17R
HAKALAU*         N/A     48  46  93 W2          N/A
KALOKO-HONOKO*   N/A     79  66  65 CALM      30.03R
PALI 2*          N/A     66  57  72 S18G33      N/A
KEALAKOMO*       N/A     77  64  65 NE18G29     N/A
KAUPULEHU*     NOT AVBL
KAPAPALA*        N/A     68  63  83 W6          N/A
LOWER KAHUKU*    N/A     64 -38   1 N1          N/A
PUHE CS*         N/A     81  66  61 SW2         N/A
PUHO CS*         N/A     80  69  67 SW2         N/A
PTA KEAMUKU*     N/A     63  55  77 CALM        N/A
WAIKOLOA*      NOT AVBL
$$

HIZ027>028-030600-
BIG ISLAND OF HAWAII INTERIOR AND SUMMMITS-

CITY           SKY/WX    TMP DP  RH WIND       PRES   REMARKS
BRADSHAW FIELD PTCLDY    56  47  74 SE8G14    30.36R
MK VISITOR CEN   N/A     54  39  58 N6          N/A
MAUNA KEA*       N/A     39   1  20 NW6         N/A
MAUNA LOA*       N/A     52 -45   1 MISG        N/A
MAUNA LOA 1*   NOT AVBL
PTA KIPUKA*      N/A     72  68  88 W3G10       N/A
PTA RANGE 17*    N/A     57  54  88 W3G12       N/A
PTA WEST*        N/A     63  57  82 SW5G10      N/A
NENE CABIN*      N/A     54  48  82 E3G9        N/A
AHUMOA*        NOT AVBL
PTA PORTABLE*  NOT AVBL
PUU MALI*        N/A    N/A N/A N/A E20G29      N/A
$$

HIC003-030600-
NORTHWEST ISLANDS-

CITY           SKY/WX    TMP DP  RH WIND       PRES   REMARKS
MIDWAY ISLAND  SUNNY     73  70  88 SE8       30.17S
MIDWAY NOS*      N/A     73 N/A N/A MISG      30.16R
FRENCH FRIGATE NOT AVBL
$$

PHZ110>124-180-030600-
BUOY REPORTS

STATION/POSITION TIME  TEMP    WIND        PRES    WAVE   SWELL
                       AIR SEA DIR/SP/G            HT/PER HT/DIR
                 (UTC) (F)     (DEG/KT/KT) (MB)    (FT/S) (FT/D)
BUOY 51001       0500   78 79   70/ 16/ 19 1018.5R
BUOY 51101       0450   73 76   50/ 16/ 19 1020.9R   7/ 8   5/ 50
BUOY 51100       NOT AVBL
BUOY 51002       0450   77 78   70/ 17/ 21 1015.8R   8/ 8   5/140
BUOY 51003       0450   78 78   50/ 14/ 17 1017.3R   7/ 9   7/ 80
BUOY 51004       0450   78 79   50/ 17/ 21 1016.5R   8/12   5/320
BARBERS PT BUOY  NOT AVBL
WAIMEA BAY BUOY  0504      78                N/A     4/11   2/330
KAILUA BAY BUOY  0511      78                N/A     5/11   2/360
LANAI BUOY       0515      78                N/A     3/15   2/210
BARBERS PT 2     0503      79                N/A     4/15   2/190
PAUWELA MAUI     0509      77                N/A     6/11   2/330
HILO             0512      78                N/A     6/ 8   2/ 10
KANEOHE BAY BUOY 0506      78                N/A     5/ 8   2/360
HANALEI KAUAI    NOT AVBL
KAHULUI HARBOR   0500   76 78   50/ 10/ 15 1019.3R
HONOLULU HARBOR  0500   77 79   60/  9/ 17 1019.5R
KILO NALU        NOT AVBL
HILO HARBOR      0500   77 77   30/  9/ 13 1018.9R
MOKUOLOE         0400   77 79   70/  9/ 11 1019.3R
NAWILIWILI       0500   77 80   50/ 11/ 15 1019.9R
WHOTS BUOY       NOT AVBL
BUOY 51028       NOT AVBL
$$

......................KEY........................................
  SKY/WX - SKY CONDITIONS/PRESENT WEATHER
  TMP    - TEMPERATURE IN FAHRENHEIT
  DWPT   - DEWPOINT IN FAHRENHEIT
  RH     - RELATIVE HUMIDITY IN PERCENT
  WIND   - DIRECTION AND SPEED /MPH FOR ISLANDS...KTS FOR BUOYS/
  PRES   - MEAN SEA LEVEL PRESSURE IN INCHES OF HG
  VSB    - VISIBILITY IN MILES
  HX     - HEAT INDEX
  WCI    - WIND CHILL INDEX
  VRB    - VARIABLE WIND DIRECTION
  N/A    - NOT AVAILABLE




USA.gov is the U.S. government's official web portal to all federal, state and local government web resources and services.